Wind_Speed
26 26 23 19 15 24 28 33 35 41 36 35 34 34 34 30 31 30 30 32 33 35 38 33 32 33 28 28 27 24 22 20 17 12 17 21 24 29 27 25 27 27 27
24 30 33 30 24 21 27 32 38 40 44 41 39 32 33 33 34 30 31 37 38 38 39 40 35 34 30 29 28 26 21 21 18 13 9 6 10 13 20 22 23 24 21
26 26 34 33 32 31 28 28 34 37 42 43 34 31 23 25 27 35 37 41 41 41 42 44 42 38 38 33 33 30 28 22 17 22 13 4 6 3 7 12 10 13 20
26 26 34 36 39 37 33 26 23 35 38 39 34 36 38 32 40 35 36 37 39 39 44 45 42 42 39 37 36 34 32 27 24 15 26 27 13 5 6 9 12 10 14
24 26 34 37 36 40 39 32 28 20 35 35 41 37 39 39 32 30 31 36 39 46 43 46 44 43 41 41 37 33 34 32 30 27 14 24 25 23 17 12 15 14 17
22 28 34 36 40 42 46 41 39 24 19 36 39 42 40 39 31 31 33 35 38 37 44 48 45 43 41 41 41 39 34 36 32 31 27 24 13 19 18 13 21 21 26
19 22 28 35 40 43 43 42 45 44 41 27 35 40 40 35 36 31 29 27 28 32 39 46 44 43 42 38 34 34 36 34 34 32 32 29 31 28 23 20 20 15 23
18 20 27 31 33 37 39 43 45 47 47 40 24 30 33 30 30 31 28 28 29 30 29 30 35 36 35 33 32 30 30 29 31 33 31 30 29 28 29 27 21 13 15
18 19 28 30 31 35 39 39 43 43 44 42 40 32 22 28 29 29 30 30 28 29 26 26 27 32 31 32 29 29 31 30 30 31 33 31 32 29 28 29 28 23 13
20 19 26 28 29 31 35 41 41 40 39 37 41 43 41 30 22 29 28 29 29 28 28 31 35 33 35 33 32 32 32 31 31 30 28 31 31 29 29 29 28 27 26
16 16 23 27 29 33 31 34 40 37 41 40 35 36 39 41 38 37 23 21 29 31 32 31 32 32 32 31 26 25 26 25 27 28 30 31 30 29 27 27 27 27 26
15 18 24 26 29 31 31 33 35 36 33 35 36 34 34 36 37 41 38 36 26 12 22 25 31 29 27 24 20 19 27 28 27 28 29 32 29 30 29 27 28 28 28
15 16 23 25 28 26 32 32 31 33 35 34 34 34 35 34 36 37 38 36 34 28 20 16 9 20 24 23 12 10 19 25 26 27 28 31 26 29 26 26 28 29 27
12 15 17 22 22 26 25 26 26 32 33 34 34 34 35 35 31 31 35 35 34 33 29 23 12 22 25 19 21 25 28 29 30 26 31 30 27 28 28 30 30 28 25
12 13 15 22 26 26 28 27 29 32 33 31 32 34 36 33 33 33 32 32 34 32 31 29 21 14 14 21 26 32 34 40 34 35 40 38 35 34 34 31 29 25 25
13 13 16 20 24 28 27 27 28 26 28 28 29 31 34 35 34 36 33 30 33 35 34 33 30 25 18 11 8 2 21 23 22 29 31 29 32 33 34 37 39 33 27
12 14 17 19 23 26 25 27 26 28 26 25 25 23 25 31 33 33 34 34 32 32 31 31 26 29 24 20 18 14 14 17 18 22 20 23 26 26 28 29 30 31 36
12 16 20 20 22 21 25 28 28 27 27 27 28 28 27 27 26 31 32 31 28 28 29 32 27 27 28 28 23 21 23 19 19 19 20 22 23 23 21 23 24 29 34
14 17 16 20 20 21 21 24 29 27 27 29 29 28 28 27 27 25 25 29 29 30 29 27 30 29 37 32 31 26 23 20 22 22 23 24 24 23 21 21 28 31 36
14 15 19 20 19 21 22 22 23 27 29 30 31 34 35 31 31 29 29 29 25 25 27 30 30 29 30 31 35 29 25 24 27 33 29 25 26 23 18 19 24 28 34
12 16 19 19 20 21 22 23 25 25 29 33 33 33 33 33 33 32 30 29 30 29 29 30 31 29 28 28 31 27 24 22 24 35 36 33 25 21 18 19 24 29 27
17 19 18 19 19 19 22 25 26 29 31 33 35 37 36 35 33 33 32 30 28 27 27 28 30 26 24 25 24 26 24 23 26 32 29 30 23 19 20 22 26 26 23
15 15 16 20 21 20 21 25 28 30 31 35 36 37 37 38 36 34 33 31 27 27 26 25 25 25 24 23 23 22 24 23 24 30 34 31 25 18 19 20 19 19 19
13 15 17 18 21 22 24 24 27 27 30 32 33 33 33 34 35 35 34 32 27 25 26 27 26 27 26 25 21 20 20 22 25 29 30 29 23 20 20 19 15 15 17
14 14 15 18 20 22 24 24 26 27 30 31 33 33 31 32 32 30 30 32 33 33 33 31 30 28 29 27 26 31 34 34 34 38 30 24 21 20 22 18 17 16 16
13 14 15 17 20 22 23 24 26 28 30 31 31 32 33 33 33 34 34 32 34 36 38 42 43 39 40 42 41 39 40 39 32 29 22 21 17 15 14 13 12 15 17
Wind_Direction
337 337 335 334 302 238 221 216 212 216 208 210 206 209 215 221 224 225 224 225 224 223 222 223 226 226 223 225 227 227 229 235 234 250 265 268 266 266 262 263 264 263 265
359 2 0 0 352 325 243 225 218 214 211 211 214 214 215 220 221 225 228 228 228 227 225 225 224 225 223 226 225 222 224 233 223 226 239 278 270 255 256 254 256 261 264
12 10 9 7 5 358 346 254 230 221 216 214 214 215 220 223 220 221 226 229 229 229 229 229 228 228 227 226 226 224 220 226 223 220 223 219 243 291 237 246 236 266 271
17 18 14 12 8 0 350 338 273 235 225 216 213 210 211 211 221 222 222 224 229 228 229 232 232 229 229 227 227 226 223 222 228 224 227 237 252 260 283 245 253 250 253
18 20 18 16 11 10 3 356 345 275 235 220 216 215 218 224 226 221 222 221 224 230 228 231 230 230 228 231 228 225 223 223 224 224 222 231 242 248 251 274 267 257 254
12 12 9 9 9 16 8 4 6 358 281 228 217 218 222 224 225 222 216 218 220 223 225 229 230 230 230 229 228 226 225 223 226 227 226 225 219 232 231 244 262 265 275
6 11 11 9 5 7 5 4 10 10 0 245 226 221 225 228 229 228 228 228 227 225 226 224 222 227 230 231 230 227 226 224 224 226 228 231 233 237 238 245 261 270 280
8 12 13 10 8 1 0 5 6 11 13 11 253 231 229 232 234 236 233 234 232 231 233 232 231 231 229 230 230 231 234 231 228 230 232 238 242 240 237 240 250 265 262
8 6 14 13 6 11 1 4 4 4 9 15 19 9 245 234 237 238 236 234 234 233 231 226 228 231 234 233 231 230 230 231 235 236 236 234 240 244 245 242 241 244 263
12 13 16 4 14 4 10 2 6 4 2 4 24 24 13 10 260 240 238 239 239 234 229 220 230 226 225 226 226 230 234 232 235 238 240 240 241 243 242 242 244 241 244
13 15 10 6 17 3 9 8 0 2 360 3 7 17 22 15 22 31 7 269 247 236 230 227 223 220 224 223 224 232 238 236 240 242 244 243 243 244 242 240 242 242 238
9 8 8 6 10 3 350 9 359 352 359 359 2 8 13 11 6 24 22 21 11 320 241 230 226 223 209 208 219 239 241 238 238 237 240 244 246 245 244 241 241 240 238
1 3 5 6 4 354 0 356 355 348 353 358 1 4 5 7 3 1 6 11 16 16 359 324 266 202 197 185 188 185 267 253 257 250 245 248 244 246 244 238 241 242 239
356 356 358 356 356 355 358 357 341 351 352 355 358 358 3 358 358 355 358 352 3 3 5 3 319 272 256 230 231 217 249 270 272 277 261 252 246 249 252 246 239 236 234
356 359 352 349 349 353 349 348 348 347 348 346 358 354 349 353 350 351 351 347 352 350 351 352 357 344 276 258 260 243 247 253 255 259 266 263 260 258 251 245 241 235 235
345 350 351 347 345 345 347 344 343 342 343 349 353 346 344 344 346 345 343 346 345 343 343 343 345 339 336 331 269 199 243 233 231 237 248 256 260 259 257 256 254 247 236
340 345 345 345 343 340 342 342 341 339 343 345 341 344 338 337 341 338 337 340 338 336 335 333 330 325 326 324 312 305 267 255 244 245 252 258 258 261 262 262 261 259 255
341 339 339 340 340 341 338 337 341 342 342 341 339 339 337 332 329 327 333 325 325 328 326 321 321 319 312 311 314 308 292 275 275 275 271 265 266 266 266 274 274 268 264
335 334 336 335 335 340 339 336 335 340 340 339 334 330 327 326 324 318 318 312 321 318 316 309 307 310 305 307 311 317 304 286 280 272 269 266 270 274 272 268 269 269 266
337 335 333 330 332 337 337 336 336 336 337 335 329 327 327 326 322 320 314 308 301 299 303 300 296 295 296 302 302 311 305 287 282 280 275 271 270 271 270 270 272 274 274
330 330 328 325 329 335 337 335 336 338 334 330 325 323 324 322 317 312 308 308 308 302 300 298 295 294 293 296 294 300 297 283 285 277 275 283 279 271 264 268 264 266 286
331 332 327 326 329 334 337 332 332 331 330 330 327 324 322 320 314 310 307 306 300 297 297 296 295 293 294 289 290 297 290 288 274 275 278 281 285 278 274 262 270 274 279
331 333 329 326 327 331 334 329 328 328 327 326 324 322 319 316 312 311 307 304 304 302 295 290 291 294 295 292 293 297 294 291 279 276 275 276 268 266 267 269 278 275 276
326 328 326 324 323 326 329 330 329 328 326 321 317 316 313 310 308 307 303 300 300 296 291 289 290 291 288 290 295 296 301 310 308 308 299 278 273 269 268 272 276 284 282
325 326 325 322 318 321 324 328 331 330 326 319 317 315 315 311 306 300 295 294 292 288 287 285 284 285 285 284 284 287 290 293 294 301 294 275 270 279 280 280 290 296 289
324 325 324 321 321 323 325 329 333 331 325 320 320 319 317 315 312 311 308 303 294 290 282 278 276 276 275 280 282 284 286 288 290 287 263 264 257 252 274 287 294 292 283
Height
784 780 775 773 771 770 770 770 772 774 782 785 785 787 790 796 800 802 803 806 809 811 813 816 818 821 823 826 828 831 834 835 838 841 838 836 833 831 830 830 829 828 828
788 785 781 777 775 771 768 765 763 766 768 772 776 781 783 786 790 794 797 798 801 804 806 808 810 813 816 819 821 824 828 830 832 833 837 832 827 824 822 821 821 820 821
798 792 787 783 779 774 769 765 761 760 760 763 770 775 779 782 782 781 784 787 791 795 798 800 802 805 808 810 813 816 820 822 826 828 830 828 822 820 816 815 814 815 815
806 800 794 788 785 780 773 763 759 757 755 759 762 763 762 763 762 769 773 778 783 786 788 793 796 797 799 802 803 807 810 817 818 822 820 820 819 817 813 811 810 810 810
815 808 803 799 794 785 778 769 757 750 751 751 754 755 755 755 758 763 767 769 771 774 780 784 787 789 790 792 796 799 802 804 809 810 813 815 815 816 816 807 803 804 803
820 815 811 804 795 785 780 772 758 749 746 744 744 746 747 749 754 754 754 757 761 763 766 771 776 779 782 782 784 789 792 795 798 802 804 804 805 805 808 806 799 798 795
825 817 812 806 800 792 788 778 764 753 742 737 739 740 742 747 748 749 752 756 757 758 755 758 762 767 770 776 780 782 784 786 790 792 793 795 795 797 798 799 794 792 789
827 822 818 815 810 805 797 784 771 760 752 742 739 739 741 743 744 746 746 748 748 750 755 758 761 762 766 770 774 777 780 783 782 784 787 789 789 790 789 788 789 786 786
828 826 820 819 816 806 802 792 780 773 764 757 744 741 740 739 739 739 739 739 741 742 745 749 754 758 761 764 768 770 771 774 776 777 778 778 778 781 782 781 781 781 778
832 828 824 825 815 814 804 798 790 783 777 769 755 751 744 737 735 733 732 733 734 736 736 736 738 742 746 751 756 760 762 765 766 768 771 771 770 771 772 773 773 773 772
837 834 830 827 814 813 807 801 797 790 782 773 766 757 753 749 740 732 730 728 727 727 727 728 730 732 736 740 747 751 756 757 758 761 762 761 763 763 762 763 764 764 765
838 834 830 826 818 817 816 799 801 799 791 782 773 764 758 755 750 738 735 729 726 724 723 722 722 725 729 733 735 742 751 754 752 750 754 753 756 754 756 756 753 753 753
838 835 831 827 821 822 809 807 808 804 794 785 777 769 765 762 752 747 741 736 729 728 725 720 718 718 719 719 722 728 743 744 746 744 744 746 747 746 748 745 745 744 742
840 837 833 830 828 821 815 811 817 801 793 786 778 772 764 764 761 758 748 745 732 730 726 725 718 721 719 714 720 714 728 728 739 737 740 740 736 736 739 740 735 735 732
839 838 835 831 826 822 819 814 807 801 794 789 776 774 771 765 764 759 754 748 738 734 732 727 719 721 721 714 705 713 720 727 723 725 735 733 728 728 729 732 726 723 725
838 838 836 832 827 821 817 815 810 805 798 788 779 779 774 769 762 759 757 749 741 736 727 723 718 717 713 716 718 695 715 714 711 724 725 722 723 722 721 720 720 712 713
837 836 834 831 827 823 818 813 809 804 799 792 789 783 780 772 761 759 756 747 743 737 732 729 728 723 713 712 715 712 716 717 714 717 713 716 715 715 714 710 708 703 701
837 836 833 831 827 823 817 811 806 802 796 791 787 782 779 772 766 761 750 754 748 738 733 730 727 723 715 714 714 711 713 709 706 703 704 707 708 708 704 703 698 693 693
838 836 833 830 826 823 819 813 806 802 797 791 786 783 779 772 767 761 753 752 736 734 730 730 728 720 710 712 711 710 707 702 699 699 701 702 700 698 697 694 692 689 685
836 833 831 828 825 822 818 813 808 801 795 790 784 776 766 759 756 751 749 747 743 733 727 722 724 718 706 704 705 706 703 698 695 695 692 691 693 693 692 687 689 684 679
834 832 829 826 823 819 815 810 805 800 795 787 781 774 767 760 755 750 747 738 730 728 722 714 713 707 702 693 702 700 696 692 689 690 681 683 688 685 681 682 683 676 676
831 830 827 824 822 818 814 808 802 798 792 785 777 770 763 758 753 747 740 734 729 722 714 710 703 698 694 695 692 692 688 688 684 685 674 672 677 674 675 675 674 672 668
830 829 826 823 820 817 813 807 801 794 787 780 773 765 757 751 745 737 733 726 719 713 709 706 698 691 687 687 688 682 684 680 679 677 673 670 673 670 669 669 665 663 659
829 827 825 822 818 814 810 806 799 793 787 779 772 765 757 748 741 732 727 719 711 706 702 698 689 684 683 684 678 678 675 670 669 667 663 662 662 661 660 659 656 653 652
828 826 824 821 817 813 809 804 798 793 785 777 769 761 754 746 738 732 723 712 703 700 691 689 685 679 673 676 674 673 670 668 665 662 655 655 653 655 654 651 647 645 645
827 824 823 820 816 811 807 802 797 791 783 774 765 757 748 737 728 718 707 703 696 689 685 682 677 670 666 664 663 660 660 660 658 657 651 650 650 649 649 647 643 643 645